TimeEST,TemperatureF,Dew PointF,Humidity,Sea Level PressureIn,VisibilityMPH,Wind Direction,Wind SpeedMPH,Gust SpeedMPH,PrecipitationIn,Events,Conditions,WindDirDegrees,DateUTC
12:56 AM,50.0,46.9,89,29.85,5.0,SSE,16.1,21.9,N/A,,Clear,160,2013-01-30 05:56:00
1:56 AM,50.0,45.9,86,29.81,7.0,SSE,17.3,21.9,N/A,,Clear,160,2013-01-30 06:56:00
2:56 AM,48.9,45.9,89,29.78,7.0,SSE,17.3,24.2,N/A,,Clear,150,2013-01-30 07:56:00
3:56 AM,50.0,45.9,86,29.75,8.0,SSE,15.0,23.0,N/A,,Clear,160,2013-01-30 08:56:00
4:56 AM,50.0,45.9,86,29.73,8.0,SSE,17.3,26.5,N/A,,Clear,160,2013-01-30 09:56:00
5:56 AM,50.0,45.9,86,29.69,9.0,South,18.4,-,N/A,,Clear,170,2013-01-30 10:56:00
6:28 AM,48.2,46.4,93,29.66,8.0,South,18.4,-,N/A,,Clear,170,2013-01-30 11:28:00
6:56 AM,50.0,45.9,86,29.65,8.0,SSE,16.1,23.0,N/A,,Clear,150,2013-01-30 11:56:00
7:56 AM,50.0,45.9,86,29.63,7.0,SSE,12.7,19.6,N/A,,Mostly Cloudy,160,2013-01-30 12:56:00
8:56 AM,52.0,47.8,86,29.60,7.0,SSE,17.3,23.0,N/A,,Mostly Cloudy,160,2013-01-30 13:56:00
9:56 AM,54.9,48.9,80,29.57,8.0,South,20.7,25.3,N/A,,Overcast,170,2013-01-30 14:56:00
10:56 AM,56.8,50.9,80,29.51,10.0,South,26.5,32.2,N/A,,Mostly Cloudy,170,2013-01-30 15:56:00
11:56 AM,56.8,50.9,80,29.49,10.0,South,18.4,29.9,N/A,,Overcast,180,2013-01-30 16:56:00
12:56 PM,57.9,52.0,81,29.47,10.0,South,20.7,25.3,N/A,,Overcast,180,2013-01-30 17:56:00
1:56 PM,57.9,52.9,83,29.47,10.0,South,15.0,-,N/A,,Overcast,180,2013-01-30 18:56:00
2:56 PM,59.0,52.9,80,29.44,10.0,South,13.8,-,N/A,,Overcast,180,2013-01-30 19:56:00
3:56 PM,57.9,52.0,81,29.45,10.0,South,15.0,20.7,0.00,Rain,Light Rain,190,2013-01-30 20:56:00
4:56 PM,56.8,52.0,84,29.43,10.0,South,15.0,24.2,0.00,Rain,Light Rain,180,2013-01-30 21:56:00
5:56 PM,55.9,52.0,87,29.41,10.0,South,20.7,27.6,0.00,Rain,Light Rain,180,2013-01-30 22:56:00
6:56 PM,54.9,50.9,86,29.40,10.0,South,20.7,27.6,0.00,Rain,Light Rain,170,2013-01-30 23:56:00
7:56 PM,54.9,50.9,86,29.36,10.0,South,18.4,23.0,0.01,Rain,Light Rain,170,2013-01-31 00:56:00
8:56 PM,54.0,50.9,89,29.34,10.0,SSE,16.1,25.3,0.01,Rain,Light Rain,160,2013-01-31 01:56:00
9:56 PM,52.9,50.9,93,29.29,10.0,SSE,15.0,24.2,0.01,Rain,Light Rain,150,2013-01-31 02:56:00
10:56 PM,52.9,50.9,93,29.22,10.0,SSE,18.4,25.3,0.07,Rain,Light Rain,150,2013-01-31 03:56:00
11:56 PM,52.9,50.0,90,29.16,9.0,SE,13.8,19.6,0.09,Rain,Rain,140,2013-01-31 04:56:00